Terminal Aerodrome Forecast
Issued by NWS

Home | Current Version | Previous Version | Text Only | Print | Product List | Glossary Off
Versions: 1 2 3 4 5 6 7 8 9 10 11 12 13 14

000
FTUS42 KMHX 202321
TAFOAJ
TAF
KOAJ 202321Z 2100/2124 VRB04KT P6SM FEW250
     FM210700 00000KT 3SM BR SCT250
     FM210800 00000KT 2SM BR SCT005
     FM211200 00000KT 5SM BR SCT250
     FM211300 13005KT P6SM SCT050
      AMD LTD TO CLD VIS AND WIND=

USA.gov is the U.S. government's official web portal to all federal, state and local government web resources and services.